Location: Unspecified
(0.0000°N, 0.0000°E)
Time: 21:11:11
(UTC+00:00)

USA 400 - Visible Passes

Search period start: 09 June 2026 00:00
Search period end: 19 June 2026 00:00
Orbit: 575 x 579 km, 70.0° (Epoch: 23 July)

Date Brightness Start Highest point End Pass type
(mag) Time Alt. Az. Time Alt. Az. Time Alt. Az.
10 Jun ? 19:49:16 10° NNE 19:49:31 11° NNE 19:49:31 11° NNE visible
11 Jun ? 19:52:33 10° N 19:54:06 20° NNE 19:54:06 20° NNE visible
12 Jun ? 19:56:14 10° NNW 19:58:45 35° N 19:58:45 35° N visible
13 Jun ? 20:00:13 10° NNW 20:03:28 46° WNW 20:03:28 46° WNW visible
14 Jun ? 20:04:32 10° NW 20:08:15 30° WSW 20:08:15 30° WSW visible
15 Jun ? 18:31:15 10° NNE 18:34:03 17° ENE 18:36:45 10° ESE visible
15 Jun ? 20:09:22 10° WNW 20:12:11 17° WSW 20:13:05 16° WSW visible
16 Jun ? 18:34:16 10° NNE 18:37:58 30° ENE 18:41:38 10° SE visible
17 Jun ? 18:37:45 10° N 18:41:53 55° ENE 18:46:01 10° SSE visible
18 Jun ? 18:41:35 10° NNW 18:45:47 78° WSW 18:50:01 10° SSE visible
